This demonstration page uses our WeatherBlox Daily Observations layout. Learn more.

41.55636, -103.73856

Hourly Observations for April 6, 2019

Temp ( °F °C ) Dew Point ( °F °C ) Humidity (%) Winds ( mph kmh ) Pressure ( in mb ) Visibility ( mi km ) Precip ( " mm )
12:58 am 00:58 Mostly Cloudy 59 14.9 32 -0.2 36 36 W 14 22 29.75 1008 10 16.0934 0 0
1:58 am 01:58 Mostly Cloudy 58 14.6 28 -2.3 31 31 WNW 14 22 29.74 1007 10 16.0934 0 0
2:58 am 02:58 Mostly Cloudy 58 14.4 28 -2.1 32 32 E 7 11 29.75 1008 10 16.0934 0 0
3:58 am 03:58 Mostly Cloudy 52 11.2 32 0 46 46 Calm 29.77 1008 10 16.0934 0 0
4:58 am 04:58 Mostly Cloudy 54 12 30 -0.9 41 41 SSE 8 13 29.75 1008 10 16.0934 0 0
5:58 am 05:58 Mostly Cloudy with Light Showers 53 11.9 32 0 44 44 SSW 18 30 29.79 1009 10 16.0934 0 0
6:58 am 06:58 Mostly Cloudy 51 10.8 37 2.5 57 57 SSE 10 17 29.75 1008 10 16.0934 0 0
8:58 am 08:58 Mostly Clear 53 11.7 33 0.5 46 46 Calm 29.72 1007 10 16.0934 0 0
9:58 am 09:58 Mostly Clear 41 5.2 34 1.1 75 75 W 7 11 29.75 1008 10 16.0934 0 0
10:58 am 10:58 Clear 41 5.1 34 0.9 75 75 WNW 10 17 29.75 1008 10 16.0934 0 0
11:58 am 11:58 Clear 40 4.5 33 0.4 75 75 WNW 5 7 29.79 1009 10 16.0934 0 0
12:58 pm 12:58 Mostly Cloudy 41 5.1 33 0.7 74 74 W 9 15 29.81 1010 10 16.0934 0 0
1:58 pm 13:58 Mostly Sunny 46 7.9 33 0.7 61 61 W 12 19 29.79 1009 10 16.0934 0 0
2:58 pm 14:58 Sunny 54 12.3 29 -1.4 39 39 W 16 26 29.78 1009 10 16.0934 0 0
3:58 pm 15:58 Sunny 58 14.3 30 -1 35 35 WNW 13 20 29.77 1008 10 16.0934 0 0
4:58 pm 16:58 Sunny 61 16 29 -1.7 30 30 W 13 20 29.76 1008 10 16.0934 0 0
5:58 pm 17:58 Sunny 63 17.2 27 -2.6 26 26 NW 10 17 29.73 1007 10 16.0934 0 0
6:58 pm 18:58 Mostly Sunny 64 17.5 25 -4 23 23 NW 13 20 29.73 1007 10 16.0934 0 0
7:58 pm 19:58 Partly Cloudy 65 18.2 26 -3.1 23 23 N 10 17 29.73 1007 10 16.0934 0 0
8:58 pm 20:58 Mostly Cloudy 64 17.6 28 -2.3 26 26 N 13 20 29.7 1006 10 16.0934 0 0
9:58 pm 21:58 Mostly Cloudy with Light Showers 61 15.9 29 -1.9 30 30 NNE 12 19 29.74 1007 10 16.0934 0 0
10:58 pm 22:58 Mostly Cloudy with Light Showers 56 13.4 36 2 46 46 Calm 29.8 1009 10 16.0934 0 0
11:58 pm 23:58 Mostly Sunny 58 14.5 34 0.9 40 40 ESE 7 11 29.77 1008 10 16.0934 0 0

Powered by AerisWeather